Home > Weather > St. Petersburg > Past weeks

Flag for USA Weather for the Past 2 Weeks in St. Petersburg, Florida, USA

Now
80 °F

Scattered clouds.


Feels Like: 84 °F
Forecast: 72 / 77 °F
Wind: 10 mph from West

Location: Whitted Airport

Current Time: May 3, 2016 at 9:59:16 PM

Latest Report: May 3, 2016 at 9:01 PM


Visibility: 10 mi

Pressure: 29.87 "Hg

Humidity: 76%

Dew Point: 72 °F

Location of St. PetersburgLocation

Historic Weather in St. Petersburg — Graph

°F

St. Petersburg Temperature Yesterday

Maximum temperature yesterday: 84 °F (at 12:53 PM)
Minimum temperature yesterday: 74 °F (at 6:53 AM)
Average temperature yesterday: 79 °F

High & Low Weather Summary for the Past Weeks

 TemperatureHumidityPressure
High90 °F (Apr 29, 2:53 PM)91% (Apr 22, 11:59 PM)30.19 "Hg (Apr 22, 11:59 PM)
Low66 °F (Apr 19, 5:53 AM)29% (Apr 24, 3:53 PM)29.85 "Hg (May 3, 7:53 PM)
Average77 °F68%29.98 "Hg
* Reported Apr 18 8:53 PM — May 3 8:53 PM, St. Petersburg, Weather by CustomWeather, © 2016

Note: Actual official high and low records may vary slightly from our data, if they occured in-between our weather recording intervals... More about our weather records

Advertising

St. Petersburg Weather History for the Previous 24 Hours

Scroll right to see more
 ConditionsComfort  
Time TempWeatherWind HumidityBarometerVisibility
8:53 PM
Tue, May 3
80 °FPartly sunny.8 mph76%29.86 "Hg10 mi
7:53 PM80 °FPassing clouds.10 mph76%29.85 "Hg10 mi
6:53 PM81 °FScattered clouds.9 mph77%29.88 "Hg10 mi
5:53 PM82 °FPassing clouds.13 mph72%29.87 "Hg10 mi
4:53 PM83 °FPassing clouds.14 mph70%29.88 "Hg10 mi
3:53 PM83 °FPassing clouds.15 mph70%29.89 "Hg10 mi
2:53 PM83 °FScattered clouds.14 mph68%29.90 "Hg10 mi
1:53 PM82 °FPartly sunny.10 mph70%29.92 "Hg10 mi
12:53 PM82 °FBroken clouds.12 mph72%29.95 "Hg10 mi
11:53 AM82 °FScattered clouds.12 mph70%29.96 "Hg10 mi
10:53 AM81 °FPartly sunny.9 mph72%29.95 "Hg10 mi
9:53 AM80 °FCloudy.12 mph76%29.95 "Hg10 mi
8:53 AM79 °FMostly cloudy.9 mph84%29.95 "Hg10 mi
7:53 AM77 °FBroken clouds.8 mph90%29.94 "Hg10 mi
7:02 AM76 °FPassing clouds.9 mph91%29.93 "Hg10 mi
5:53 AM77 °FPassing clouds.9 mph90%29.93 "Hg10 mi
5:00 AM77 °FPassing clouds.10 mph88%29.93 "Hg10 mi
3:53 AM77 °FPassing clouds.3 mph85%29.93 "Hg10 mi
2:53 AM77 °FClear.No wind85%29.92 "Hg10 mi
1:53 AM78 °FClear.6 mph82%29.94 "Hg10 mi
12:53 AM78 °FPassing clouds.6 mph82%29.98 "Hg10 mi
11:53 PM
Mon, May 2
78 °FClear.6 mph82%29.99 "Hg10 mi
10:53 PM79 °FMostly cloudy.7 mph79%29.99 "Hg10 mi
9:53 PM79 °FPassing clouds.6 mph79%29.97 "Hg10 mi
Weather by CustomWeather, © 2016

See weather overviewHow to use our weather pages